Theta_e
306 305 306 303 302 302 300 300 298 301 301 305 306 309 310 309 307 307 305 306 309 309 310 312 313 313 311 311 311 310 309 307 307 308 309 309 310 311 313 313 313 313 314 316
304 306 306 303 303 302 303 304 303 303 302 305 306 311 310 309 306 302 305 308 309 310 311 310 311 309 309 309 309 309 307 305 306 307 308 308 310 310 311 311 310 312 315 315
302 306 304 300 303 304 304 305 303 299 302 303 304 303 304 305 306 306 307 308 308 309 310 311 310 309 308 308 308 307 305 305 306 307 307 307 308 308 308 308 309 311 314 316
303 304 293 306 311 309 306 304 304 302 302 303 303 304 306 307 308 307 307 307 308 311 311 311 309 309 309 308 307 306 305 305 306 306 306 307 307 306 306 307 309 311 312 315
301 300 301 306 309 307 305 302 302 302 303 303 304 305 305 307 308 309 309 309 310 312 311 310 309 309 308 307 306 305 304 305 306 306 306 306 305 305 306 307 309 310 311 314
303 297 292 304 310 314 309 299 304 303 304 304 304 297 301 308 308 308 309 310 310 310 309 309 309 309 308 307 306 305 305 305 305 305 305 305 305 305 307 307 309 310 310 314
300 301 302 309 311 314 298 300 305 305 304 305 302 305 307 308 308 309 309 308 310 310 309 310 310 309 307 307 306 307 305 303 304 304 305 306 303 305 306 307 310 311 308 311
303 299 295 311 309 303 309 310 307 307 307 306 306 306 307 308 308 308 308 308 309 309 309 311 310 308 307 307 309 308 303 303 306 304 304 305 303 305 306 305 308 309 309 309
304 305 311 313 311 314 312 308 308 307 307 307 306 306 307 308 308 309 308 309 310 308 309 310 311 309 307 309 310 308 302 304 306 306 304 305 301 303 305 307 308 305 304 305
308 309 310 310 308 308 309 308 308 309 309 308 307 307 307 308 309 309 309 308 310 309 308 309 311 311 309 309 309 308 304 306 306 303 302 303 301 303 306 306 305 305 302 302
305 307 308 309 310 308 308 308 309 309 309 309 309 308 308 308 309 309 309 309 309 309 309 309 311 311 311 311 310 308 307 306 305 302 303 303 303 303 303 306 302 302 304 304
301 308 308 307 311 308 308 309 310 309 308 309 309 309 309 308 309 309 309 310 309 309 310 310 310 310 312 312 310 308 307 306 304 303 302 303 303 302 298 296 295 293 292 297
309 311 312 311 310 311 309 310 311 310 310 309 310 309 309 308 310 308 308 309 310 310 310 310 310 311 312 313 310 309 308 307 305 302 303 302 302 302 300 300 297 296 293 293
312 310 308 309 309 311 311 311 309 310 310 310 310 310 309 309 309 309 308 309 311 310 310 311 310 310 313 312 310 310 309 299 305 304 303 303 303 302 301 300 300 302 299 296
313 311 312 311 311 311 312 311 309 309 310 310 312 310 310 309 309 309 310 310 310 309 309 309 309 310 313 312 310 310 309 307 306 306 304 302 303 303 302 302 302 302 304 301
314 311 311 310 311 310 309 307 308 310 311 311 311 310 310 310 310 309 310 310 308 307 309 310 309 310 312 311 311 310 310 301 299 306 305 304 304 303 302 302 302 302 302 303
313 311 311 311 312 312 310 308 311 310 311 311 311 311 309 307 308 308 309 309 309 309 309 310 309 311 311 311 311 310 309 309 301 306 306 306 305 304 303 302 302 302 303 303
314 314 314 313 311 311 311 312 311 312 311 311 310 309 307 307 305 308 308 306 308 308 309 311 311 311 311 311 310 310 308 308 307 305 307 306 306 305 304 303 302 302 303 303
314 313 314 314 315 313 313 313 314 313 312 311 311 312 313 311 311 310 310 308 309 309 310 312 306 305 309 309 306 308 308 307 307 306 306 303 305 305 304 304 303 303 303 303
314 315 314 316 317 315 314 315 315 314 315 314 314 313 313 313 313 311 311 309 311 312 313 312 310 311 311 310 300 307 308 308 307 307 306 305 306 306 306 299 303 304 304 304
314 315 314 314 315 316 315 315 314 314 315 314 313 313 313 315 314 313 312 310 313 311 309 304 309 310 310 303 304 309 309 308 307 307 306 306 305 305 304 305 305 305 304 305
316 315 315 316 314 314 315 315 314 314 313 313 314 314 313 312 312 312 312 310 312 295 307 308 306 294 300 294 306 306 306 306 306 305 303 302 303 304 303 304 305 305 305 306
317 316 314 312 312 313 313 314 313 312 312 312 312 310 308 308 311 308 308 311 311 302 307 306 292 287 288 306 305 306 305 303 303 304 305 305 302 300 301 302 301 302 304 306
314 311 311 313 313 313 312 312 312 311 310 310 306 305 306 305 307 309 309 301 294 298 304 302 296 288 289 302 301 301 300 300 301 303 302 294 302 302 303 303 302 302 302 301
310 310 310 310 309 308 308 308 309 307 307 307 308 308 308 307 304 304 304 305 296 300 305 293 291 290 301 301 301 301 302 302 303 303 302 301 301 301 301 302 302 301 301 302
309 308 308 308 307 307 306 304 302 302 301 300 302 303 304 307 306 303 304 299 304 298 302 303 303 302 302 300 299 299 300 301 301 302 300 301 300 299 301 300 299 298 298 299
307 300 305 306 306 306 305 303 302 301 300 300 300 301 302 302 303 302 298 303 302 303 303 302 301 298 300 300 299 299 299 300 295 299 299 297 299 300 300 300 300 300 299 298
Wind_Speed
2 2 2 2 3 5 2 3 4 8 9 11 13 13 7 6 7 8 9 6 7 5 1 3 4 4 5 6 7 8 10 11 11 12 12 12 12 12 11 11 11 12 13 12
2 0 3 5 3 1 5 6 4 7 6 11 8 5 6 4 6 7 8 5 4 3 1 3 3 4 6 7 9 10 11 11 11 11 12 12 11 11 11 11 12 12 13 12
1 5 5 4 3 5 3 6 3 7 5 8 7 8 7 5 3 5 3 2 3 0 3 2 4 5 7 7 8 9 10 10 11 11 12 11 11 12 12 12 12 12 13 11
2 4 2 4 1 1 2 6 5 3 2 4 4 4 4 3 4 4 3 1 0 2 0 1 4 5 6 7 8 9 10 11 12 13 13 13 12 13 13 12 12 11 12 10
3 1 2 3 2 1 2 4 4 2 1 3 2 4 2 1 1 2 1 0 2 1 1 2 5 6 6 8 8 9 10 11 11 12 13 14 13 14 13 11 12 10 9 11
2 1 2 3 3 1 1 3 2 0 1 3 4 5 5 4 3 2 2 0 2 3 3 5 6 5 7 9 9 10 10 10 10 11 12 14 11 13 11 11 10 7 9 6
2 2 1 2 6 1 3 5 1 1 2 4 3 4 4 2 3 2 3 3 3 4 6 7 6 6 9 10 11 10 9 7 9 9 12 11 9 11 11 12 10 8 7 7
2 2 3 4 1 2 4 2 2 2 1 1 1 0 1 3 4 4 5 4 4 6 7 8 6 6 11 11 11 9 6 8 9 8 10 7 9 11 14 7 9 8 9 8
2 3 1 2 2 2 3 2 2 2 2 2 2 3 4 5 4 5 6 6 5 6 8 10 10 8 11 13 11 9 7 9 8 9 10 8 7 9 9 9 7 6 9 8
4 2 1 1 1 2 3 2 4 3 3 5 4 5 6 5 5 5 5 7 6 7 9 11 12 10 11 12 11 9 8 7 6 7 8 7 6 5 7 6 7 7 5 5
4 1 2 1 2 1 2 3 5 4 4 7 7 8 7 7 7 6 6 7 6 7 9 12 12 12 12 11 8 7 7 5 5 5 6 7 6 6 7 6 4 5 6 5
3 3 1 3 3 2 5 7 6 6 7 9 9 10 6 8 8 7 7 7 7 9 10 12 11 11 12 9 5 6 6 4 5 6 6 6 6 7 3 4 10 7 6 4
4 4 5 2 3 6 7 9 8 7 8 8 8 7 9 10 10 6 8 8 9 9 10 10 10 10 11 6 5 5 6 5 5 5 6 6 5 6 7 5 7 5 4 6
5 5 3 5 4 3 9 7 6 9 10 10 11 8 10 10 10 9 9 9 8 8 9 9 10 10 10 6 6 6 6 6 6 5 5 5 5 5 5 4 5 5 1 3
6 9 5 4 7 9 9 8 11 12 12 12 11 11 10 11 10 9 8 7 6 7 10 10 9 11 9 7 7 7 7 6 5 5 5 5 6 5 5 5 5 5 5 3
3 3 4 8 12 9 4 5 10 12 11 12 12 10 10 8 8 9 7 6 6 9 11 10 10 11 9 7 8 7 8 10 7 6 5 6 5 6 5 5 5 5 5 4
4 6 8 10 9 9 8 7 8 11 9 10 12 10 8 5 7 10 7 2 6 10 12 11 13 12 10 9 9 8 7 7 9 8 7 6 6 6 6 6 5 5 5 3
2 4 5 6 6 7 5 6 5 6 6 7 7 5 5 5 7 8 7 6 6 9 10 13 12 11 11 10 8 7 7 8 8 9 8 7 7 6 7 7 7 7 6 4
2 6 8 9 8 5 5 6 5 5 5 4 6 7 7 8 8 9 8 7 10 10 12 7 8 9 11 10 7 7 8 9 10 10 9 9 8 8 8 8 8 8 7 6
5 6 8 9 7 6 7 6 7 7 6 5 5 5 5 5 5 6 6 9 10 8 11 11 10 8 9 9 6 7 8 9 10 10 10 10 10 9 9 9 9 9 8 8
8 8 10 10 10 10 9 8 8 9 8 6 7 6 6 7 6 4 5 6 6 7 8 6 5 6 5 6 5 6 8 8 10 9 9 10 11 11 10 10 9 9 9 9
8 9 12 11 11 12 11 10 10 9 6 6 6 6 6 7 5 4 2 4 5 7 3 4 5 4 3 5 4 4 4 5 6 8 8 6 7 9 10 10 11 10 10 10
9 10 11 11 11 12 11 8 6 5 5 5 5 5 2 3 5 6 4 2 2 1 1 2 4 5 5 3 3 2 3 4 4 7 9 9 6 6 7 9 6 8 10 11
10 9 9 8 6 5 6 6 4 4 4 3 2 2 3 3 3 4 4 4 5 5 3 1 2 3 5 3 4 4 4 4 4 3 3 2 3 5 7 8 6 6 7 8
6 6 7 8 7 6 7 7 5 4 5 4 5 5 6 5 5 5 5 6 6 8 6 6 5 5 3 4 4 5 5 5 5 7 6 6 5 3 2 4 5 5 6 6
7 6 5 6 6 6 6 7 6 6 5 5 6 5 6 5 6 6 7 7 8 7 7 6 5 5 5 5 5 6 7 7 7 7 6 6 3 4 5 2 2 3 3 4
7 9 8 7 7 8 9 9 9 9 8 7 9 8 9 9 9 9 10 10 10 9 8 7 6 5 6 6 7 7 7 7 7 6 5 6 7 7 5 5 6 5 4 3
Wind_Direction
26 272 198 72 21 44 73 46 351 353 339 8 354 352 29 83 91 89 89 128 162 108 100 333 29 16 8 357 352 347 341 336 334 329 324 319 323 323 316 315 316 310 305 293
153 102 348 108 51 102 80 31 21 346 36 5 9 39 55 82 122 144 167 127 118 107 294 337 10 357 358 356 349 340 334 332 329 327 326 324 323 326 319 319 318 312 307 295
281 351 134 154 47 57 88 55 346 14 1 336 19 28 29 47 103 112 107 100 96 155 304 0 1 354 344 335 334 331 327 325 327 327 328 333 328 325 325 322 312 314 313 296
304 308 221 67 173 344 58 63 49 79 32 35 46 47 49 74 128 131 147 133 284 293 259 344 337 330 315 320 324 323 322 320 328 332 327 326 328 326 324 321 314 313 304 310
268 306 22 115 43 359 9 80 23 72 129 124 154 277 145 174 226 216 214 278 346 309 221 282 295 304 306 310 313 315 324 327 328 330 329 325 326 326 326 321 317 317 304 313
155 255 271 56 6 298 233 138 39 108 188 204 298 336 26 204 202 195 220 268 261 219 219 258 281 294 293 299 304 312 317 317 320 324 327 322 325 323 319 313 305 312 317 339
150 219 129 8 323 205 280 33 95 199 202 217 303 340 343 238 232 270 257 252 241 230 250 266 287 292 288 297 299 303 301 308 309 317 324 328 314 317 322 314 307 325 346 355
112 220 195 7 222 345 74 155 222 195 189 244 291 30 244 252 269 253 253 257 236 250 258 276 286 279 286 292 294 293 309 302 310 320 329 325 318 320 328 321 324 3 2 359
301 46 8 322 47 79 167 200 177 209 179 189 156 233 263 278 277 270 266 277 263 258 275 280 281 273 281 286 296 315 303 302 323 328 336 339 324 340 337 346 355 4 12 352
187 122 337 60 179 226 205 220 173 195 169 185 224 245 265 278 281 279 276 274 283 269 270 283 288 290 282 288 298 306 303 307 333 330 338 329 328 348 345 348 340 4 341 338
108 59 129 144 270 285 158 192 187 157 186 220 231 253 261 279 282 278 272 275 274 273 279 283 287 293 292 297 302 296 299 294 311 316 328 322 333 333 342 343 344 326 329 327
107 145 58 349 321 208 197 211 203 197 216 233 236 256 268 274 282 278 277 280 276 271 269 276 286 290 292 304 290 292 291 285 310 305 316 328 332 335 338 280 303 315 278 250
124 192 222 285 282 220 232 244 244 241 249 272 266 265 267 273 278 287 277 272 271 279 285 285 286 288 286 294 275 276 270 281 290 280 312 321 329 335 342 339 312 320 15 316
224 190 211 221 268 234 234 251 250 265 260 256 267 270 265 264 276 273 275 276 281 279 280 284 289 287 285 277 266 262 256 247 273 286 299 306 320 323 325 325 315 318 210 330
229 233 283 324 293 269 251 249 247 256 267 272 270 270 278 271 263 265 278 275 267 274 278 281 282 282 282 262 255 254 235 249 249 262 272 294 294 298 310 316 314 312 318 308
289 258 268 269 280 281 262 245 262 273 283 281 284 275 270 260 255 268 270 273 260 278 286 287 279 274 282 262 259 254 242 239 248 252 259 262 275 286 291 294 298 305 313 330
325 355 348 326 316 312 295 244 255 268 300 303 299 299 284 242 262 265 263 234 275 275 279 278 270 279 270 255 252 256 249 242 224 245 244 248 256 271 275 278 280 286 294 319
273 288 285 288 304 312 323 315 312 289 300 297 298 291 269 263 256 273 267 261 266 267 263 264 272 274 272 258 247 256 253 249 233 238 251 245 238 241 249 255 262 270 275 253
317 321 316 306 307 287 287 306 306 304 301 313 309 315 319 302 290 277 276 273 278 282 284 290 270 256 265 265 228 246 245 245 241 239 241 241 243 243 239 246 248 249 255 263
310 319 322 311 299 281 291 290 284 285 283 278 285 291 293 302 310 301 297 273 279 287 302 309 316 304 298 300 262 265 256 242 242 248 244 244 244 244 245 230 251 258 253 248
299 308 305 298 293 291 272 266 268 266 267 271 272 277 288 303 303 279 265 280 350 349 311 307 341 331 317 331 323 309 301 297 285 267 250 247 254 250 247 243 241 234 238 250
301 300 301 299 293 289 294 283 275 267 255 261 272 284 298 290 308 316 345 351 352 357 35 57 52 17 15 322 27 42 3 328 322 304 284 268 258 257 258 251 254 249 245 238
302 305 301 304 303 301 306 297 287 277 274 299 317 335 38 330 301 299 295 105 275 357 269 76 346 318 311 351 349 43 62 26 16 343 322 314 295 271 281 277 274 280 273 266
321 325 319 324 326 341 352 4 18 21 357 348 351 293 265 271 281 260 277 269 230 258 254 295 326 333 318 30 9 0 348 330 306 303 306 41 327 326 303 286 277 274 268 277
26 26 27 29 33 31 22 7 2 356 338 296 271 261 269 269 271 295 272 266 226 247 255 181 241 272 314 343 338 327 322 320 324 313 312 306 292 303 325 326 333 343 318 285
28 23 22 22 15 357 347 347 328 319 310 308 304 300 301 274 273 264 271 267 262 237 236 240 250 263 279 291 313 308 307 311 305 307 309 306 324 313 297 311 317 304 319 330
21 18 356 350 353 345 341 330 320 318 313 302 297 301 299 293 288 282 279 277 267 252 246 246 249 265 278 291 294 299 302 303 315 310 309 303 300 295 305 321 315 290 294 290